Regional Weather Roundup
Issued by NWS Cleveland, OH

Home | Current Version | Previous Version | Graphics & Text | Print | Product List | Glossary On
Versions: 1 2 3 4 5 6 7 8 9 10 11 12 13 14 15 16 17 18 19 20 21 22 23 24 25 26 27 28 29 30 31 32 33 34 35 36 37 38 39 40 41 42 43 44 45 46 47 48 49 50
000
ASUS41 KCLE 190910
RWRCLE
OHIO REGIONAL WEATHER ROUNDUP
NATIONAL WEATHER SERVICE CLEVELAND, OH
500 AM EDT THU OCT 19 2017

NOTE: "FAIR" INDICATES FEW OR NO CLOUDS BELOW 12,000 FEET WITH NO
SIGNIFICANT WEATHER AND/OR OBSTRUCTIONS TO VISIBILITY.

OHZ001>008-015>018-024>027-034-035-043-044-191000-
   NORTHWEST OHIO

CITY           SKY/WX    TMP DP  RH WIND       PRES   REMARKS
DEFIANCE       CLEAR     52  43  71 SW8       30.10F
FINDLAY        CLEAR     50  43  77 S9        30.12F
TOLEDO EXPRESS CLEAR     53  46  77 SW10      30.09F
TOLEDO EXEC    CLEAR     51  43  74 SW8       30.11F
LIMA           CLEAR     51  44  77 S10       30.14F
$$

OHZ009>014-019>023-028>033-038-089-191000-
   NORTHEAST OHIO

CITY           SKY/WX    TMP DP  RH WIND       PRES   REMARKS
CLE-HOPKINS    CLEAR     54  43  66 SW9       30.17R
CLE-LAKEFRONT  CLEAR     57  42  57 S12       30.14R
CUY CO. ARPT   NOT AVBL
LORAIN-ELYRIA  CLEAR     50  39  66 S8        30.15S
ASHTABULA      CLEAR     50  41  71 S8        30.16S
AKRON-CANTON   CLEAR     47  39  74 SW7       30.18S
WOOSTER        CLEAR     40  39  97 SW3       30.19R
MANSFIELD      CLEAR     50  43  77 S9        30.17S
YOUNGSTOWN     PTCLDY    48  39  71 S7        30.18S
$$

OHZ042-051>053-060>062-070>072-077>081-191000-
  SOUTHWEST OHIO

CITY           SKY/WX    TMP DP  RH WIND       PRES   REMARKS
CINC-COVINGTON CLEAR     49  46  90 SW6       30.21R
CINC-LUNKEN    FOG       43  43 100 CALM      30.23S VSB 1/4
HAMILTON       PTCLDY    40  40 100 CALM      30.22R
DAYTON         CLEAR     50  46  86 SW9       30.19S
WRIGHT-PAT AFB CLEAR     46  44  91 CALM      30.19R
DAYTON GENERAL CLEAR     47  43  86 S8        30.19S
WILMINGTON     CLEAR     47  43  86 SW5       30.21R
$$

OHZ036-037-039>041-045>050-054>059-063>069-073>076-082>088-191000-
  CENTRAL AND SOUTHEAST OHIO

CITY           SKY/WX    TMP DP  RH WIND       PRES   REMARKS
COLUMBUS       CLEAR     50  43  77 S3        30.20S
OSU AIRPORT    CLEAR     48  44  86 S7        30.19S
BOLTON FIELD   CLEAR     44  41  91 SW5       30.20R
RICKENBACK AFB CLEAR     43  41  94 SW5       30.20R
NEWARK         CLEAR     40  37  89 CALM      30.20S
MARION         CLEAR     46  41  82 S8        30.18R
LANCASTER      CLEAR     37  36  96 CALM      30.21S
ZANESVILLE     CLEAR     41  38  89 CALM      30.21S
NEW PHILLY     NOT AVBL
$$




USA.gov is the U.S. government's official web portal to all federal, state and local government web resources and services.